Lapse_Rate
5.6 5.4 5.3 5.4 4.5 4.6 4.3 5.3 5.2 5.0 5.0 5.1 5.0 5.0 4.9 4.3 4.2 3.9 3.1 3.3 3.3 3.7
5.9 5.6 5.5 5.2 4.4 4.3 5.1 4.9 4.9 5.2 5.1 4.7 4.6 4.6 4.2 4.2 3.9 3.9 4.2 4.2 4.1 4.1
5.8 5.5 5.4 5.3 4.6 4.2 4.6 4.0 4.2 4.8 4.3 4.0 3.7 3.6 3.1 3.4 3.4 3.5 3.7 4.0 4.1 4.2
5.2 5.4 5.3 5.3 5.6 5.0 5.6 5.4 5.0 5.0 4.2 3.9 3.4 3.2 2.2 2.7 3.5 3.6 3.7 3.6 3.4 4.1
3.2 5.5 5.5 5.5 5.4 6.1 5.8 6.0 5.7 5.4 4.6 4.4 4.0 3.6 3.0 2.4 3.0 2.5 2.8 3.4 3.6 3.3
0.3 0.6 1.3 1.4 1.2 1.3 2.5 3.7 4.9 4.7 5.1 5.1 4.9 4.8 3.8 3.6 3.1 2.8 3.1 3.1 3.5 3.4
-1.2 -1.3 -0.9 -0.6 -0.3 0.5 0.8 1.1 1.4 2.2 3.5 4.1 4.3 4.6 5.5 5.6 4.4 3.9 3.2 3.1 3.3 3.6
-2.0 -1.9 -2.1 -2.0 -1.7 -0.9 -0.2 0.4 -0.1 1.0 1.6 1.6 3.1 2.7 2.8 3.7 4.1 5.0 4.6 3.9 3.2 3.7
-2.3 -2.2 -2.2 -2.1 -2.2 -1.3 -1.3 -1.1 -0.5 -0.0 0.6 1.0 1.5 -0.7 -0.8 -0.6 1.1 3.1 4.2 4.6 4.0 3.5
-1.0 -1.1 -1.3 -1.2 -1.1 -1.3 -1.5 -1.1 -0.9 -0.5 -0.1 0.0 -0.0 -0.3 -0.4 -1.0 -0.5 0.3 1.0 2.0 3.3 3.5
-0.3 -0.2 -0.2 -0.1 -0.2 -0.4 -0.6 -0.3 -0.4 0.1 0.4 0.6 1.3 0.8 0.8 0.6 0.7 0.5 1.2 1.3 1.8 2.0
-0.4 0.0 0.1 0.4 0.2 0.2 -0.1 0.1 0.4 1.1 1.4 1.4 1.7 1.6 1.8 1.6 1.3 2.1 2.2 2.6 2.3 2.4
-0.2 -0.3 -0.4 -0.2 -0.2 0.1 0.3 1.2 1.4 1.6 2.1 2.6 2.5 3.1 2.7 2.2 1.8 1.4 2.0 1.5 2.3 1.9
0.6 0.1 0.1 -0.1 -0.1 -0.2 -0.1 -0.0 0.0 1.1 1.6 2.5 2.9 2.9 2.9 2.6 2.2 2.5 1.9 2.1 2.2 2.0
Wind_Speed
8 5 6 7 6 7 5 7 13 14 15 16 16 15 14 7 6 7 6 8 6 4
8 8 7 9 10 8 8 5 9 13 10 12 13 14 12 7 8 7 8 9 9 7
10 6 7 6 8 9 9 7 7 8 9 8 10 12 9 8 8 8 8 7 8 8
9 8 6 6 6 8 10 9 8 10 10 10 10 10 9 10 10 10 11 9 10 11
8 2 5 7 6 7 8 10 12 11 10 10 10 10 12 12 11 12 13 13 13 14
6 7 6 7 6 6 6 6 4 2 5 10 11 12 11 13 13 13 14 14 14 15
5 5 5 5 6 6 6 6 6 6 5 6 7 7 9 12 13 13 13 13 13 13
6 6 6 7 7 7 6 5 6 7 6 6 6 4 6 6 6 9 11 12 13 14
5 5 6 6 6 6 6 6 6 6 6 6 4 12 13 10 7 7 9 10 9 7
5 5 5 5 5 5 6 6 6 6 6 6 6 10 10 11 7 7 6 7 7 7
4 3 3 3 4 4 4 5 5 5 6 6 5 9 10 9 5 5 6 6 7 8
4 3 3 3 3 3 3 3 4 4 4 4 5 8 9 9 6 7 7 7 6 5
3 3 4 4 4 3 3 4 4 4 4 5 4 3 6 7 5 6 6 6 7 7
2 2 2 3 3 4 4 4 4 4 4 4 4 4 9 10 6 5 6 6 6 5
Wind_Direction
198 198 192 173 179 200 195 201 196 194 200 202 201 202 197 193 199 195 203 208 210 214
213 204 204 193 191 199 205 196 192 198 201 207 205 200 201 202 208 203 207 213 211 209
222 209 199 182 187 199 210 204 194 205 202 205 200 201 194 211 219 208 218 217 214 215
221 219 209 215 205 203 208 205 208 206 204 207 205 203 194 213 222 215 225 223 216 222
30 275 223 225 234 228 212 221 216 215 215 214 214 211 208 214 216 212 219 223 220 223
37 23 34 18 15 19 12 345 285 260 240 229 226 212 206 215 218 216 224 227 224 230
34 29 12 20 12 13 5 7 359 350 298 250 245 250 239 227 219 221 222 226 229 230
17 17 12 14 8 2 8 7 357 345 344 3 335 2 328 282 265 237 226 224 222 228
33 18 14 8 358 359 359 1 350 352 351 350 354 14 9 359 329 296 258 251 249 238
41 36 21 3 4 4 357 343 350 342 342 341 346 4 357 354 338 323 319 319 292 260
56 44 24 14 13 7 353 340 336 331 333 328 326 348 338 344 326 314 303 301 300 306
38 20 17 19 14 352 337 328 326 321 309 305 315 323 337 342 330 311 308 296 306 303
37 29 7 360 344 333 329 324 321 314 296 320 298 298 344 355 339 331 326 329 322 331
40 19 18 355 333 333 328 329 331 333 343 351 2 4 5 354 344 331 324 322 302 317